Location: Townhomes of Cocoa Beach
(28.3513°N, 80.6103°W)
Time: 16:57:07
(UTC-04:00)

ISS - Visible Passes

Search period start: 19 July 2018 00:00
Search period end: 29 July 2018 00:00
Orbit: 402 x 408 km, 51.6° (Epoch: 20 July)

Date Brightness Start Highest point End Pass type
(mag) Time Alt. Az. Time Alt. Az. Time Alt. Az.
19 Jul -0.1 05:00:42 10° NNE 05:01:31 11° NE 05:02:19 10° NE visible
19 Jul -3.7 21:33:34 10° SW 21:36:48 76° NW 21:40:04 10° NE visible
20 Jul -3.0 05:42:57 10° NNW 05:46:12 55° NE 05:49:25 10° SE visible
20 Jul -3.4 20:41:41 10° SSW 20:44:47 41° SE 20:47:52 10° ENE visible
20 Jul -0.4 22:19:47 10° WNW 22:21:24 13° NW 22:23:01 10° N visible
21 Jul -1.4 04:51:15 10° NNW 04:54:02 25° NE 04:56:48 10° E visible
21 Jul -1.2 21:26:25 10° W 21:29:08 24° NW 21:31:52 10° NNE visible
22 Jul -0.4 04:00:04 10° N 04:01:46 13° NE 04:03:28 10° ENE visible
22 Jul -3.5 05:35:16 10° WNW 05:38:23 41° SW 05:41:29 10° SSE visible
23 Jul -1.2 04:49:11 13° SE 04:49:11 13° SE 04:49:35 10° SE visible
23 Jul -0.1 21:21:01 10° NW 21:21:35 10° NW 21:22:10 10° NNW visible
